ARIANE 5 R/B, 44477

Orbit data source: Space-Track

ARIANE 5 R/B, 44477 is space debris in HEO originally from a launch on Tue, 06 Aug 2019 UTC launched from the French Guiana (FRGUI). Debris objects in space refer to the collection of defunct objects orbiting the Earth. Examples of debris include non-operational satellites, rocket bodies, and fragments generated from explosions, collisions, or faulty payload assembly.

Loading next visibility...
ARIANE 5 R/B details
Identifier
44477, 2019-049C
Orbit
HEO
Last TLE update20 hours ago
Origin
Flag of FRArianespace (FR)
ManufacturerArianeGroup
MissionSpacecraft
Bus & MotorESC-A, Unknown motor
Mass~5,000 kg wet, ~5,000 kg dry
Launch date (UTC)
2019-08-06 (5 years ago)
Launch vehicleUnknown
Launch site
French Guiana (FRGUI)
Object type
Payload
Rocket body
Debris
Shape & HBRCyl + 1 Nozzle, 7 m
Radar Cross Section41.627 m², Large (>1 m²)

Expand to show TLE details & history

TLE from 20 hours ago
0 ARIANE 5 R/B
1 44477U 19049C   24360.99832832  .00061605  27873-6  16794-2 0  9998
2 44477   4.3006 223.1317 6849654 233.3002  42.7398  2.89303971 49711
Epoch: 2024-12-25T23:57Z
Definitive object data (Epoch: 2024-12-25T23:57:35.566Z)
Latitude
Longitude128.90264°
Altitude12,349.404 km
Speed4.838 km/s
True Right ascension14h 53m 08s
True Declination0° 00' 00"
Sunlit
Object was in daylight at TLE epoch
Visualization TLE readout
Latitude3.81594°
Longitude-169.19137°
Altitude27,882.506 km
Speed2.026 km/s
Apparent Right ascension18h 52m 38s
Apparent Declination-3° 29' 21"
Sunlit
Object is in daylight
Visualization observer readout
Local Sidereal Time19:49:53
Azimuth200.295° SSW
Elevation44.648°
Doppler factor1
Orbital elements
Apogee altitude28,686.564 km
Perigee altitude177.84 km
Semi-major axis20,810.339 km
Eccentricity0.6849654
Inclination4.3006°
RAAN223.1317°
Arg. of periapsis233.3002°
True anomaly126.75192°
Mean anomaly42.7398°
Eccentric anomaly81.56045°
Mean motion0.72298 °/min
BSTAR0.0016794
Orbital period497.94 mins
Loading maneuver chart data...
Loading historical data...
Loading historical data...
Loading historical data...
Loading historical data...
Loading historical data...
Loading historical data...
Loading historical data...
Other satellites on launch #49 in the year 2019 (2019-08-06 UTC)

ARIANE 5 R/B Visibility forecast

Observer location: undefined°, undefined

Span
Click to sort rows by Start time (UTC) header in descending order
Start Az.
Max El. time (UTC)
Max El. Az.
Max El.
End time (UTC)
End Az.
180 mins2024-12-26 20:27:03.956Z200.285° SSW2024-12-26 20:27:03.956Z200.285° SSW35.088°2024-12-26 23:27:03.956Z141.355° SSE
199 mins2024-12-27 17:08:03.956Z230.276° WSW2024-12-27 19:41:03.956Z211.06° SW33.167°2024-12-27 20:27:03.956Z215.101° SW
|